Location: Miles
(41.4492°N, 81.6087°W)
Time: 08:20:14
(UTC+00:00)

Vanguard 1 Rocket - Pass Details

Date: 11 September 2024
Orbit: 650 x 4218 km, 34.3° (Epoch: 05 October)

Event Time Altitude Azimuth Distance (km) Brightness Sun altitude
Rises 17:37:03 0° 286° (WNW) 8,456 12.3 52.6°
Reaches altitude 10° 17:44:58 10° 275° (W) 7,384 12.2 52.4°
Maximum altitude 18:01:33 23° 233° (SW) 5,574 12.3 51.7°
Drops below altitude 10° 18:14:20 10° 188° (S) 5,536 12.2 51.0°
Sets 18:19:10 0° 174° (S) 6,001 12.1 50.6°
